This is the latest recevied weather packets stored in our database for station/object JO1YDG-13. If no packets are shown the sender has not sent any weather packets the latest 10 day(s).
| Time | Temp. | Humidity | Pressure | Rain* | Wind** | Luminosity | Snow |
|---|---|---|---|---|---|---|---|
| 1777782569 | 26.67° C | 30% | 978.9 hPa | 0 mm | - | - | - |
| 1777782268 | 26.67° C | 31% | 979.2 hPa | 0 mm | - | - | - |
| 1777781968 | 26.67° C | 30% | 979.2 hPa | 0 mm | - | - | - |
| 1777781668 | 25.56° C | 31% | 979.5 hPa | 0 mm | - | - | - |
| 1777781368 | 25.56° C | 32% | 979.5 hPa | 0 mm | - | - | - |
| 1777781068 | 25.56° C | 32% | 979.5 hPa | 0 mm | - | - | - |
| 1777780768 | 25.56° C | 34% | 979.8 hPa | 0 mm | - | - | - |
| 1777780469 | 25° C | 35% | 979.8 hPa | 0 mm | - | - | - |
| 1777780169 | 24.44° C | 38% | 980.2 hPa | 0 mm | - | - | - |
| 1777779869 | 23.89° C | 38% | 980.2 hPa | 0 mm | - | - | - |
| 1777779569 | 23.89° C | 41% | 980.2 hPa | 0 mm | - | - | - |
| 1777779269 | 23.33° C | 41% | 980.3 hPa | 0 mm | - | - | - |
| 1777778968 | 23.33° C | 42% | 980.3 hPa | 0 mm | - | - | - |
| 1777778667 | 23.33° C | 44% | 980.7 hPa | 0 mm | - | - | - |
| 1777778369 | 23.33° C | 43% | 980.7 hPa | 0 mm | - | - | - |
| 1777778069 | 23.33° C | 44% | 980.9 hPa | 0 mm | - | - | - |
| 1777777769 | 22.78° C | 44% | 980.9 hPa | 0 mm | - | - | - |
| 1777777469 | 22.78° C | 46% | 980.9 hPa | 0 mm | - | - | - |
| 1777777168 | 22.22° C | 47% | 981.2 hPa | 0 mm | - | - | - |
| 1777776868 | 22.78° C | 46% | 981.2 hPa | 0 mm | - | - | - |
| 1777776568 | 22.78° C | 46% | 981.5 hPa | 0 mm | - | - | - |
| 1777776268 | 22.78° C | 45% | 981.5 hPa | 0 mm | - | - | - |
| 1777775968 | 23.33° C | 45% | 981.7 hPa | 0 mm | - | - | - |
| 1777775668 | 22.78° C | 45% | 981.8 hPa | 0 mm | - | - | - |
| 1777775367 | 22.22° C | 47% | 981.8 hPa | 0 mm | - | - | - |
* Rain latest hour (hover to see other rain measurements)
** Current wind speed in m/s (hover to see current wind gust speed)